Weather in Baklan

Russia / Bryansk Oblast     52°44′20″N   33°15′26″E
temp.,
°C
wind,
m/s
gust,
m/s
humid.,
%
clouds,
%
prec.,
mm/h
press.,
hPa
HPBL,
m
24 may, tue
tue2400:00+5nw34700 0.0 101145
03:00+4wnw48765 0.0 1011122
06:00+5nw38885 0.0 1011177
09:00+11nnw577477 0.0 1011714
12:00+13nnw6846100 0.0 10121338
15:00+15nnw485073 0.0 10122122
18:00+15wnw576872 0.2 1012805
21:00+10nw4108324 0.3 1013152
25 may, wed
wed2500:00+8nw479034 0.0 101498
03:00+7nnw348252 0.0 101559
06:00+7nnw34803 0.0 101667
09:00+12nnw24585 0.0 1017404
12:00+17nnw35525 0.0 10171179
15:00+18nw485219 0.1 10162370
18:00+15wsw35755 0.3 1016210
21:00+12wsw23768 0.4 101621
26 may, thu
thu2600:00+11sw33867 0.0 101629
03:00+10s338798 0.0 101538
06:00+10ssw3786100 0.0 1013155
09:00+14ssw51378100 0.0 1012581
12:00+11s71496100 4.1 1009733
15:00+13wnw7139166 5.7 1008825
18:00+16wnw714755 0.3 10091453
21:00+12w4108714 0.3 1009217
27 may, fri
fri2700:00+11wsw5149269 0.0 1009354
03:00+12w7148263 0.0 1009652
06:00+12w7138746 0.0 1009921
09:00+14w711695 0.0 10101199
12:00+16w710575 0.0 10101751
15:00+18w71155100 0.0 10082217
18:00+17sw596982 0.0 10071169
21:00+15s71577100 0.0 1004694
28 may, sat
sat2800:00+14wsw101694100 3.1 10021023
03:00+10w61194100 4.1 1004599
06:00+9w6119229 0.1 1005634
09:00+12wsw677518 0.1 10061145
12:00+14wsw7106432 0.5 10071727
15:00+15wsw7125883 1.3 10072078
18:00+13wsw61070100 0.6 10081195
21:00+9wsw398784 1.2 1010179